Weather History for Weatherford, OK

Change the Weather History Date:

Sunday, December 29, 2013

  Actual Average (KJWG) Record (KJWG)
Temperature  
Mean Temperature 30 °F -  
Max Temperature 41 °F 48 °F 70 °F (1984)
Min Temperature 19 °F 25 °F -4 °F (1983)
Degree Days  
Heating Degree Days 35    
Moisture  
Dew Point 20 °F    
Average Humidity 73    
Maximum Humidity 100    
Minimum Humidity 55    
Precipitation  
Precipitation 0.00 in - - ()
Sea Level Pressure  
Sea Level Pressure 30.19 in    
Wind  
Wind Speed 14 mph (North)    
Max Wind Speed 30 mph    
Max Gust Speed 41 mph    
Visibility 10 miles    
Events Fog    
Averages and records for this station are not official NWS values.
T = Trace of Precipitation, MM = Missing Value Source: NWS Daily Summary

Daily Weather History Graph

Daily Weather History Graph

Search for Another Location

Airport:

Trip Planner

Search our weather history database for the weather conditions in past years. The results will help you decide how hot, cold, wet, or windy it might be!

Date:

Astronomy

Dec. 29, 2013 Rise Set
Actual Time 7:43 AM CST 5:30 PM CST
Civil Twilight 7:15 AM CST 5:58 PM CST
Nautical Twilight 6:43 AM CST 6:30 PM CST
Astronomical Twilight 6:12 AM CST 7:01 PM CST
Moon 4:31 AM CST (12/29) 3:07 PM CST (12/29)
Length of Visible Light 10h 43m
Length of Day
9h 47m
Waning Crescent, 11% of the Moon is Illuminated
Dec 29
Waning Crescent
Jan 1
New
Jan 7
First Quarter
Jan 15
Full
Jan 23
Last Quarter

Hourly Weather History & Observations

Time (CST) Temp. Windchill Dew Point Humidity Pressure Visibility Wind Dir Wind Speed Gust Speed Precip Events Conditions
12:15 AM 41.0 °F 39.0 °F 37.4 °F 87% 29.90 in 10.0 mi SSW 3.5 mph - N/A   Clear
12:35 AM 41.0 °F 37.1 °F 39.2 °F 93% 29.91 in 10.0 mi SW 5.8 mph - N/A   Clear
12:55 AM 41.0 °F - 37.4 °F 87% 29.91 in 10.0 mi Calm Calm - N/A   Clear
1:15 AM 35.6 °F - 35.6 °F 100% 29.91 in 5.0 mi Calm Calm - N/A   Clear
1:35 AM 37.4 °F - 35.6 °F 93% 29.91 in 3.0 mi Calm Calm - N/A   Clear
1:55 AM 33.8 °F 27.7 °F 32.0 °F 93% 29.92 in 0.5 mi North 6.9 mph - N/A Fog Fog
2:15 AM 35.6 °F 27.5 °F 35.6 °F 100% 29.95 in 5.0 mi NNW 11.5 mph 19.6 mph N/A   Scattered Clouds
2:35 AM 35.6 °F 29.9 °F 35.6 °F 100% 29.96 in 10.0 mi NW 6.9 mph - N/A   Mostly Cloudy
2:55 AM 37.4 °F 30.8 °F 37.4 °F 100% 29.96 in 10.0 mi NNW 9.2 mph - N/A   Mostly Cloudy
3:15 AM 41.0 °F 33.9 °F 41.0 °F 100% 29.98 in 10.0 mi NNW 12.7 mph - N/A   Overcast
3:35 AM 41.0 °F 31.6 °F 37.4 °F 87% 30.01 in 10.0 mi North 20.7 mph 27.6 mph N/A   Overcast
3:55 AM 35.6 °F 23.7 °F 33.8 °F 93% 30.02 in 10.0 mi North 24.2 mph 32.2 mph N/A   Overcast
4:15 AM 35.6 °F 24.0 °F 32.0 °F 87% 30.03 in 10.0 mi North 23.0 mph 27.6 mph N/A   Overcast
4:35 AM 33.8 °F 21.0 °F 32.0 °F 93% 30.04 in 10.0 mi North 25.3 mph 34.5 mph N/A   Overcast
4:55 AM 32.0 °F 18.9 °F 30.2 °F 93% 30.06 in 10.0 mi North 24.2 mph 36.8 mph N/A   Overcast
5:15 AM 32.0 °F 19.2 °F 28.4 °F 87% 30.09 in 10.0 mi North 23.0 mph 33.4 mph N/A   Overcast
5:35 AM 30.2 °F 16.5 °F 26.6 °F 86% 30.10 in 10.0 mi North 24.2 mph 41.4 mph N/A   Overcast
5:55 AM 30.2 °F 16.8 °F 26.6 °F 86% 30.11 in 10.0 mi North 23.0 mph 35.7 mph N/A   Overcast
6:15 AM 28.4 °F 13.8 °F 24.8 °F 86% 30.13 in 10.0 mi North 25.3 mph 33.4 mph N/A   Overcast
6:35 AM 28.4 °F 15.1 °F 23.0 °F 80% 30.14 in 10.0 mi North 20.7 mph 32.2 mph N/A   Overcast
6:55 AM 26.6 °F 10.3 °F 21.2 °F 80% 30.15 in 10.0 mi North 29.9 mph 35.7 mph N/A   Overcast
7:15 AM 26.6 °F 11.4 °F 21.2 °F 80% 30.16 in 10.0 mi North 25.3 mph 34.5 mph N/A   Overcast
7:35 AM 26.6 °F 11.4 °F 19.4 °F 74% 30.17 in 10.0 mi North 25.3 mph 33.4 mph N/A   Overcast
7:55 AM 24.8 °F 8.7 °F 17.6 °F 74% 30.18 in 10.0 mi North 26.5 mph 35.7 mph N/A   Overcast
8:15 AM 24.8 °F 9.6 °F 17.6 °F 74% 30.20 in 10.0 mi North 23.0 mph 32.2 mph N/A   Overcast
8:35 AM 23.0 °F 8.3 °F 17.6 °F 80% 30.22 in 10.0 mi North 19.6 mph 32.2 mph N/A   Overcast
8:55 AM 23.0 °F 6.6 °F 17.6 °F 80% 30.23 in 10.0 mi North 25.3 mph 32.2 mph N/A   Overcast
9:15 AM 23.0 °F 6.6 °F 17.6 °F 80% 30.24 in 10.0 mi North 25.3 mph 33.4 mph N/A   Overcast
9:35 AM 23.0 °F 6.9 °F 17.6 °F 80% 30.26 in 10.0 mi North 24.2 mph 32.2 mph N/A   Overcast
9:55 AM 23.0 °F 7.2 °F 17.6 °F 80% 30.27 in 10.0 mi North 23.0 mph 33.4 mph N/A   Overcast
10:15 AM 23.0 °F 6.9 °F 15.8 °F 74% 30.28 in 10.0 mi North 24.2 mph 32.2 mph N/A   Overcast
10:35 AM 24.8 °F 10.3 °F 17.6 °F 74% 30.28 in 10.0 mi North 20.7 mph 31.1 mph N/A   Overcast
10:55 AM 26.6 °F 11.7 °F 15.8 °F 64% 30.27 in 10.0 mi North 24.2 mph 31.1 mph N/A   Overcast
11:15 AM 26.6 °F 11.7 °F 17.6 °F 69% 30.28 in 10.0 mi North 24.2 mph 36.8 mph N/A   Mostly Cloudy
11:35 AM 26.6 °F 12.7 °F 17.6 °F 69% 30.28 in 10.0 mi North 20.7 mph 32.2 mph N/A   Mostly Cloudy
11:55 AM 28.4 °F 14.4 °F 17.6 °F 64% 30.28 in 10.0 mi North 23.0 mph 31.1 mph N/A   Scattered Clouds
12:15 PM 28.4 °F 14.1 °F 17.6 °F 64% 30.27 in 10.0 mi North 24.2 mph 32.2 mph N/A   Scattered Clouds
12:35 PM 28.4 °F 14.7 °F 17.6 °F 64% 30.27 in 10.0 mi North 21.9 mph 31.1 mph N/A   Mostly Cloudy
12:55 PM 28.4 °F 15.1 °F 17.6 °F 64% 30.27 in 10.0 mi North 20.7 mph 27.6 mph N/A   Overcast
1:15 PM 26.6 °F 12.4 °F 15.8 °F 64% 30.27 in 10.0 mi North 21.9 mph 29.9 mph N/A   Overcast
1:35 PM 26.6 °F 14.3 °F 17.6 °F 69% 30.26 in 10.0 mi North 16.1 mph 26.5 mph N/A   Overcast
1:55 PM 28.4 °F 15.4 °F 15.8 °F 59% 30.24 in 10.0 mi North 19.6 mph 29.9 mph N/A   Overcast
2:15 PM 28.4 °F 15.8 °F 15.8 °F 59% 30.25 in 10.0 mi North 18.4 mph 27.6 mph N/A   Overcast
2:35 PM 28.4 °F 15.1 °F 15.8 °F 59% 30.24 in 10.0 mi North 20.7 mph 27.6 mph N/A   Overcast
2:55 PM 26.6 °F 12.7 °F 14.0 °F 59% 30.24 in 10.0 mi North 20.7 mph 27.6 mph N/A   Overcast
3:15 PM 28.4 °F 15.8 °F 15.8 °F 59% 30.25 in 10.0 mi North 18.4 mph - N/A   Overcast
3:35 PM 28.4 °F 15.1 °F 15.8 °F 59% 30.26 in 10.0 mi North 20.7 mph 24.2 mph N/A   Overcast
3:55 PM 28.4 °F 16.6 °F 15.8 °F 59% 30.27 in 10.0 mi North 16.1 mph 23.0 mph N/A   Overcast
4:15 PM 28.4 °F 18.0 °F 14.0 °F 55% 30.28 in 10.0 mi North 12.7 mph 19.6 mph N/A   Overcast
4:35 PM 28.4 °F 18.0 °F 14.0 °F 55% 30.28 in 10.0 mi North 12.7 mph 18.4 mph N/A   Overcast
4:55 PM 28.4 °F 16.2 °F 14.0 °F 55% 30.28 in 10.0 mi North 17.3 mph 23.0 mph N/A   Overcast
5:15 PM 28.4 °F 17.5 °F 14.0 °F 55% 30.28 in 10.0 mi North 13.8 mph 20.7 mph N/A   Overcast
5:35 PM 28.4 °F 17.5 °F 14.0 °F 55% 30.29 in 10.0 mi North 13.8 mph - N/A   Overcast
5:55 PM 26.6 °F 15.2 °F 14.0 °F 59% 30.28 in 10.0 mi NNE 13.8 mph 18.4 mph N/A   Mostly Cloudy
6:15 PM 26.6 °F 15.2 °F 14.0 °F 59% 30.29 in 10.0 mi North 13.8 mph 18.4 mph N/A   Clear
6:35 PM 26.6 °F 16.8 °F 14.0 °F 59% 30.29 in 10.0 mi NNE 10.4 mph - N/A   Clear
6:55 PM 26.6 °F 15.2 °F 14.0 °F 59% 30.29 in 10.0 mi NNE 13.8 mph - N/A   Clear
7:15 PM 26.6 °F 15.2 °F 12.2 °F 55% 30.30 in 10.0 mi NNE 13.8 mph 18.4 mph N/A   Clear
7:35 PM 26.6 °F 16.8 °F 12.2 °F 55% 30.30 in 10.0 mi NNE 10.4 mph - N/A   Clear
7:55 PM 24.8 °F 13.4 °F 12.2 °F 59% 30.30 in 10.0 mi NNE 12.7 mph - N/A   Clear
8:15 PM 24.8 °F 12.9 °F 12.2 °F 59% 30.30 in 10.0 mi North 13.8 mph - N/A   Clear
8:35 PM 23.0 °F 13.1 °F 12.2 °F 63% 30.30 in 10.0 mi NNE 9.2 mph - N/A   Clear
8:55 PM 23.0 °F 13.1 °F 10.4 °F 59% 30.31 in 10.0 mi NNE 9.2 mph 16.1 mph N/A   Clear
9:15 PM 23.0 °F 13.9 °F 12.2 °F 63% 30.30 in 10.0 mi North 8.1 mph - N/A   Clear
9:35 PM 21.2 °F 13.6 °F 12.2 °F 68% 30.30 in 10.0 mi North 5.8 mph - N/A   Clear
9:55 PM 21.2 °F 16.4 °F 12.2 °F 68% 30.30 in 10.0 mi North 3.5 mph - N/A   Clear
10:15 PM 21.2 °F 16.4 °F 12.2 °F 68% 30.30 in 10.0 mi North 3.5 mph - N/A   Clear
10:35 PM 21.2 °F 16.4 °F 12.2 °F 68% 30.30 in 10.0 mi North 3.5 mph - N/A   Clear
10:55 PM 19.4 °F 14.3 °F 12.2 °F 74% 30.30 in 10.0 mi North 3.5 mph - N/A   Clear
11:15 PM 19.4 °F 14.3 °F 10.4 °F 68% 30.29 in 10.0 mi North 3.5 mph - N/A   Clear
11:35 PM 19.4 °F 14.3 °F 10.4 °F 68% 30.28 in 10.0 mi North 3.5 mph - N/A   Clear
11:55 PM 19.4 °F 12.8 °F 10.4 °F 68% 30.27 in 10.0 mi North 4.6 mph - N/A   Clear